N133GL KVNY-KHND

Flight info

Callsign N133GL
Flight time N/A
Altitude 29000
Route DAG DCT DANBY T359 DICSA DCT
Aircraft C525/L-SDFGRWY/SB1

Departure

Time 2026-04-28 01:34
Airport Van Nuys Airport (KVNY)

Arrival

Time N/A
Airport Henderson Executive Airport (KHND)
Time Latitude Longitude Altitude Speed Heading
2026-04-28 01:16 34.19969 -118.49053 757 ft 0 kts 356°
2026-04-28 01:26 34.19981 -118.49053 758 ft 3 kts
2026-04-28 01:27 34.20014 -118.49055 758 ft 6 kts 355°
2026-04-28 01:27 34.20066 -118.49042 760 ft 8 kts 15°
2026-04-28 01:27 34.20137 -118.49041 761 ft 11 kts 354°
2026-04-28 01:27 34.20215 -118.49059 763 ft 11 kts 350°
2026-04-28 01:28 34.20298 -118.49083 764 ft 12 kts 349°
2026-04-28 01:28 34.20388 -118.49098 766 ft 12 kts 355°
2026-04-28 01:28 34.20467 -118.49106 768 ft 10 kts 355°
2026-04-28 01:28 34.20528 -118.49113 769 ft 8 kts 354°
2026-04-28 01:29 34.20588 -118.49120 771 ft 9 kts 355°
2026-04-28 01:29 34.20656 -118.49127 772 ft 10 kts 355°
2026-04-28 01:29 34.20730 -118.49135 773 ft 9 kts 355°
2026-04-28 01:29 34.20784 -118.49138 774 ft 6 kts 358°
2026-04-28 01:30 34.20835 -118.49143 775 ft 8 kts 356°
2026-04-28 01:30 34.20902 -118.49149 777 ft 10 kts 356°
2026-04-28 01:30 34.20984 -118.49155 779 ft 12 kts 357°
2026-04-28 01:30 34.21079 -118.49163 781 ft 14 kts 355°
2026-04-28 01:31 34.21183 -118.49173 784 ft 15 kts 355°
2026-04-28 01:31 34.21291 -118.49184 787 ft 16 kts 356°
2026-04-28 01:31 34.21405 -118.49194 789 ft 15 kts 356°
2026-04-28 01:31 34.21515 -118.49204 792 ft 16 kts 348°
2026-04-28 01:32 34.21630 -118.49226 794 ft 15 kts 355°
2026-04-28 01:32 34.21729 -118.49231 795 ft 13 kts 359°
2026-04-28 01:32 34.21813 -118.49234 796 ft 10 kts 356°
2026-04-28 01:32 34.21871 -118.49217 797 ft 5 kts 59°
2026-04-28 01:33 34.21873 -118.49212 797 ft 0 kts 67°
2026-04-28 01:33 34.21873 -118.49211 797 ft 1 kts 67°
2026-04-28 01:33 34.21876 -118.49171 797 ft 7 kts 91°
2026-04-28 01:33 34.21860 -118.49124 796 ft 7 kts 153°
2026-04-28 01:34 34.21663 -118.49104 794 ft 61 kts 176°
2026-04-28 01:34 34.21019 -118.49041 803 ft 118 kts 175°
2026-04-28 01:34 34.20137 -118.48953 1157 ft 136 kts 175°
2026-04-28 01:34 34.19144 -118.48724 1650 ft 154 kts 155°
2026-04-28 01:35 34.18159 -118.48022 2093 ft 178 kts 146°
2026-04-28 01:35 34.17130 -118.47120 2738 ft 188 kts 143°
2026-04-28 01:35 34.16084 -118.46095 3375 ft 197 kts 142°
2026-04-28 01:35 34.15029 -118.45029 3941 ft 208 kts 141°
2026-04-28 01:36 34.14096 -118.43509 4037 ft 244 kts 109°
2026-04-28 01:36 34.14082 -118.41453 4548 ft 249 kts 67°
2026-04-28 01:36 34.15035 -118.40071 6004 ft 206 kts 31°
2026-04-28 01:36 34.16374 -118.39677 6713 ft 199 kts 354°
2026-04-28 01:37 34.17736 -118.39973 7362 ft 200 kts 344°
2026-04-28 01:37 34.19085 -118.40408 8019 ft 201 kts 342°
2026-04-28 01:37 34.20444 -118.40866 8584 ft 203 kts 341°
2026-04-28 01:37 34.21800 -118.41318 9200 ft 203 kts 341°
2026-04-28 01:38 34.23196 -118.41763 9735 ft 206 kts 341°
2026-04-28 01:38 34.24609 -118.42213 10289 ft 206 kts 338°
2026-04-28 01:38 34.26012 -118.42594 10802 ft 215 kts 358°
2026-04-28 01:38 34.27501 -118.42114 11318 ft 224 kts 14°
2026-04-28 01:39 34.28947 -118.41387 11814 ft 227 kts 17°
2026-04-28 01:39 34.30417 -118.40618 12305 ft 228 kts 17°
2026-04-28 01:39 34.31873 -118.39877 12757 ft 231 kts 15°
2026-04-28 01:39 34.31894 -118.39866 12762 ft 231 kts 15°